Rbgn^[z[y[W
メイン
   新天体発見情報
     Comet C/2023 X7 (PANSTARRS)
投稿するにはまず登録を

フラット表示 前のトピック | 次のトピック
投稿者 スレッド
佐藤裕久
投稿日時: 2024-2-29 12:45
モデレータ
登録日: 2005-6-12
居住地: 日本
投稿: 2661
オンライン
Comet C/2023 X7 (PANSTARRS)

R. Weryk (西オンタリオ大学,物理および天文学科)の通報によると、2023年12月10日UT、Haleakala
にあるPan-STARRS2 1.8-m Ritchey-Chretien反射望遠鏡で得た画像から彗星を発見した。
Werykによると、2024年2月4.25日UT、2枚の60-秒のw-バンドフォローアップ画像では、1".8-1".9の
シーイングで、2".6 (半値全幅:FWHM)の拡散した頭部が見え、p.a. 70-150°にわたってて3"の広い
尾がある。
小惑星センターのPCCP webpageに公表後、佐藤英貴氏(東京都文京区, 2023年12月11.5日UT、120-秒
CCD露出9枚のスタック, 0.51-m f/6.8 アストログラフ, Siding Spring, NSW, オーストラリア, 
遠隔操作: 恒星状に見えた。4".3の円形範囲で測定した光度は19.9等であった。2024年1月6.1日、
60-秒露出10枚のスタック,"Deep Sky Chile" 0.51-m f/6.8 アストログラフ, Rio Hurtado, チリ, 
遠隔操作: 強く集光した7" のコマが見えるが尾はなかった。3".6の円形範囲で測定した光度は19.8等
であった)らCCD位置観測者によって彗星状と観測された。

彗星機能の報告は次のとおり、

OC   Date        Reporter           Coma    Tail    PA          Exposures
F52  2024-02-04  R. Weryk           0".7      3"     70-150       2x60s
T12  2024-02-20  Y. Ramanjooloo     2".2                          3x300s

発見位置は次のとおり、

     2023 UT             R.A. (2000) Decl.       Mag.
     Dec. 10.38833    5 52 53.01   -40 52 37.0   20.4
          10.39944    5 52 52.55   -40 52 35.5   20.5
          10.41050    5 52 52.15   -40 52 34.3   20.6
          10.42158    5 52 51.71   -40 52 33.0   20.6

MPCの双曲線軌道要素、位置推算表は次のとおり、

Orbital elements:
    C/2023 X7 (PANSTARRS)                                                       
Epoch 2024 Mar. 31.0 TT = JDT 2460400.5                                         
T 2025 May 14.85498 TT                                  Rudenko                 
q   4.8213353            (2000.0)            P               Q                  
z  -0.0004514      Peri.  354.33990     -0.45483176     -0.35862668             
 +/-0.0000373      Node   119.20819     +0.84934595     -0.44996524             
e   1.0021764      Incl.   69.05502     +0.26784236     +0.81787419             
From 69 observations 2023 Dec. 10-2024 Feb. 20, mean residual 0".4.             
                                                                                
Ephemeris:
Date    TT    R. A. (2000) Decl.     Delta      r    Elong.  Phase   m1
2024 01 23    05 27 21.7 -36 37 18   5.6374  6.0578   110.8     8.7  20.6
...
2024 02 07    05 22 23.2 -34 03 31   5.6610  5.9913   104.9     9.2  20.5
...
2024 02 15    05 20 56.9 -32 33 05   5.6862  5.9563   101.1     9.4  20.5
...
2024 02 21    05 20 26.8 -31 22 48   5.7100  5.9302    98.1     9.5  20.5
2024 02 22    05 20 24.7 -31 10 56   5.7143  5.9259    97.5     9.5  20.5
2024 02 23    05 20 23.3 -30 59 02   5.7187  5.9216    97.0     9.5  20.5
...
2024 02 29    05 20 32.0 -29 47 04   5.7473  5.8958    93.8     9.7  20.5
...
2024 03 08    05 21 27.3 -28 10 23   5.7899  5.8617    89.3     9.7  20.5
...
2024 03 23    05 25 17.2 -25 11 06   5.8793  5.7988    80.5     9.8  20.5

(MPEC 2024-D102、CBET 5355)

フラット表示 前のトピック | 次のトピック

題名 投稿者 日時
 » Comet C/2023 X7 (PANSTARRS) 佐藤裕久 2024-2-29 12:45

投稿するにはまず登録を
 
© 1999 Tsutomu Seki.